     2              OBSERVATION DATA    GPS                 RINEX VERSION / TYPE
teqc 1997Sep28 Simon McClusky 98/06/22                      PGM / RUN BY / DATE
                                                            COMMENT
BIT 2 OF LLI FLAGS DATA COLLECTED UNDER A-S CONDITION       COMMENT
BIT 2 OF LLI FLAGS DATA COLLECTED UNDER A-S CONDITION       COMMENT
Original Marker Name: GS13                                  COMMENT
Campaign Name: China Lake May 1998                          COMMENT
4-Character Station Name: GS13                              COMMENT
6-Character Antenna Code: ASHGD3                            COMMENT
Vertical Measurement Point: TGP                             COMMENT
Vertical Offset to Rinex Ref. Point: 0.0640                 COMMENT
Radial Measurement Point: RRP                               COMMENT
Radial Offset to Rinex Ref. Point: 0.0000                   COMMENT
Antenna Height from Field Measurement: 0.2020 m             COMMENT
Additional Antenna Identification Info.:                    COMMENT
The Whopper (700718AB)                                      COMMENT
Original XYZ: -2371706.4900 -4624967.4400 3685629.0800      COMMENT
New XYZ position is based on association with SCEC monument COMMENT
E1F4C5X4+0011. Position of that monument is believed to be  COMMENT
valid to within 1 m horizontally; vertical accuracy         COMMENT
should be no worse than 3-times this value.                 COMMENT
                                                            COMMENT
Revised Rinex header created by UCSD GPS archive for        COMMENT
GSAC on 01-Aug-2000 (2000:214) 03:08:48 GMT                 COMMENT
For assistance contact dagnew@ucsd.edu                      COMMENT
or anderson@python.ucsd.edu                                 COMMENT
                                                            COMMENT
GO13                                                        MARKER NAME
WAP US NATIONAL IMAGERY MAPPING AGENCY                      OBSERVER / AGENCY
456 ASHTECH Z-XII3 1G00                                     REC # / TYPE / VERS
443 ASHTECH GEODETIC III                                    ANT # / TYPE
 -2371696.9690 -4624983.9737  3685648.0703                  APPROX POSITION XYZ
        0.1380        0.0000        0.0000                  ANTENNA: DELTA H/E/N
     1     1     0                                          WAVELENGTH FACT L1/2
     5    L1    L2    C1    P2    P1                        # / TYPES OF OBSERV
    30                                                      INTERVAL
  1998     5    11    15    26    0.000000                  TIME OF FIRST OBS
  1998     5    11    21    29   60.000000                  TIME OF LAST OBS
                                                            END OF HEADER
 98  5 11 15 26  0.0000000  0  5G15G 2G26G27G13
                                  23552109.708
    -59827.92459    -40617.26757  21365030.467    21365037.965    21365030.590
     -9438.35257                  22850389.246    22850397.179
      9304.00857                  21016299.583    21016309.963
    143152.96959     97092.88356  22958797.117    22958809.730    22958801.670
 98  5 11 15 26 30.0000000  0  5G15G 2G26G27G13
    -30921.87346                  23547020.891    23547029.761
    -85005.08059    -60235.84957  21360239.161    21360246.902    21360239.547
    -69724.04049    -43284.75747  22842125.792    22842131.695    22842124.321
     42406.58449     28997.02147  21021109.410    21021119.197    21021111.288
    209599.93049    148869.64046  22971446.411    22971454.086    22971446.346
 98  5 11 15 27  0.0000000  0  6G15G19G 2G26G27G13
    -72272.27449    -51353.19146  23542032.781    23542040.612    23542029.733
    164377.98359    117239.93655  23805986.121    23805998.186    23805987.850
   -110076.86049    -79772.31747  21355467.546    21355475.913    21355468.546
   -112678.12149    -76755.50747  22833950.006    22833957.905    22833950.626
     68085.63449     49006.63447  21025999.772    21026005.806    21025997.935
    276156.22359    200731.53556  22984108.163    22984119.355    22984111.407
 98  5 11 15 27 30.0000000  0  7G 7G15G19G 2G26G27G13
   -167851.86859   -120522.29457  20558338.719    20558349.352    20558341.649
    -97941.40759    -71355.12256  23537153.444    23537155.647    23537146.126
    230745.31859    168954.58355  23818617.502    23818627.425    23818616.813
   -135020.66249    -99209.06447  21350720.739    21350729.279    21350721.901
   -155108.11459   -109817.87057  22825869.455    22825883.807    22825876.523
     94197.95459     69353.86457  21030966.020    21030974.791    21030966.973
    342838.03349    252691.28746  22996798.984    22996808.589    22996800.634
 98  5 11 15 28  0.0000000  0  7G 7G15G19G 2G26G27G13
   -224806.00159   -164902.13057  20547501.986    20547511.350    20547503.662
   -123050.64649    -90920.70746  23532373.312    23532376.942    23532368.390
    297305.29149    220819.30045  23831284.735    23831293.527    23831282.932
   -159845.83849   -118553.37347  21345996.842    21346005.233    21345997.876
   -197001.33349   -142461.96847  22817898.025    22817911.796    22817904.513
    120749.30749     90043.18747  21036018.836    21036027.385    21036019.550
    409637.23849    304742.49746  23009510.959    23009520.202    23009512.136
 98  5 11 15 28 30.0000000  0  7G 7G15G19G 2G26G27G13
   -281312.83549   -208933.41647  20536750.031    20536758.437    20536750.787
   -147586.92349   -110039.91346  23527701.848    23527707.928    23527699.171
    364062.31949    272837.60845  23843987.774    23843997.198    23843986.535
   -184522.79049   -137782.18247  21341301.556    21341309.411    21341302.078
   -238346.90349   -174679.33247  22810033.236    22810044.054    22810036.735
    147744.41249    111078.29347  21041156.192    21041164.443    21041156.600
    476559.25049    356889.39246  23022245.996    23022255.157    23022247.047
 98  5 11 15 29  0.0000000  0  7G 7G15G19G 2G26G27G13
   -337343.76149   -252593.86347  20526087.852    20526096.156    20526088.489
   -171519.70949   -128688.75546  23523147.026    23523153.627    23523144.857
    431048.09249    325034.13445  23856734.225    23856744.366    23856733.672
   -209018.42049   -156869.70347  21336640.466    21336648.078    21336640.742
   -279132.32249   -206460.20947  22802273.135    22802282.906    22802275.591
    175206.75449    132477.47847  21046382.257    21046390.382    21046382.527
    543641.24549    409160.96046  23035011.379    23035020.485    23035012.391
 98  5 11 15 29 30.0000000  0  7G 7G15G19G 2G26G27G13
   -392873.01849   -295863.40647  20515521.169    20515529.336    20515521.661
   -194825.35249   -146849.02846  23518711.504    23518718.814    23518709.996
    498272.76349    377416.84445  23869526.386    23869537.009    23869526.235
   -233312.92449   -175800.50747  21332017.737    21332025.012    21332017.697
   -319337.73749   -237789.14647  22794623.034    22794632.133    22794624.788
    203148.84249    154250.48147  21051699.558    21051707.655    21051699.759
    610902.15649    461571.96646  23047811.155    23047819.875    23047811.849
 98  5 11 15 30  0.0000000  0  7G 7G15G19G 2G26G27G13
   -447911.67449   -338750.66547  20505047.905    20505055.842    20505048.177
   -217515.02149   -164529.31846  23514393.434    23514401.279    23514392.255
    565714.10949    429968.36345  23882360.215    23882370.892    23882359.998
   -257417.18749   -194583.07047  21327430.859    21327438.134    21327430.844
   -358965.29149   -268667.79447  22787082.244    22787091.295    22787083.986
    231560.15649    176389.11447  21057106.122    21057114.232    21057106.337
    678342.34449    514122.63546  23060644.851    23060653.391    23060645.330
 98  5 11 15 30 30.0000000  0  7G 7G15G19G 2G26G27G13
   -502434.36849   -381235.86947  20494672.529    20494680.550    20494672.870
   -239570.41549   -181715.31346  23510196.175    23510204.153    23510195.137
    633379.95949    482694.83345  23895236.755    23895247.465    23895236.452
   -281311.18349   -213201.78847  21322884.158    21322891.248    21322884.003
   -397997.04349   -299082.18247  22779655.211    22779663.788    22779656.522
    260447.42449    198898.64147  21062603.169    21062611.357    21062603.441
    745990.40749    566835.26746  23073517.922    23073526.686    23073518.500
 98  5 11 15 31  0.0000000  0  7G 7G15G19G 2G26G27G13
   -556426.17949   -423307.40947  20484398.379    20484406.284    20484398.606
   -260985.88049   -198402.71646  23506120.716    23506129.042    23506120.059
    701277.77449    535602.08345  23908157.224    23908168.102    23908157.162
   -305008.03049   -231666.88747  21318374.751    21318381.930    21318374.687
   -436428.17149   -329028.54947  22772342.443    22772350.630    22772343.423
    289821.04449    221787.13147  21068193.017    21068201.030    21068193.132
    813860.79549    619721.19246  23086433.313    23086442.071    23086433.905
 98  5 11 15 31 30.0000000  0  7G 7G15G19G 2G26G27G13
   -609885.56749   -464964.06447  20474225.544    20474233.312    20474225.635
   -281767.53649   -214596.25646  23502166.091    23502174.599    23502165.435
    769399.83549    588684.05645  23921120.653    23921131.399    23921120.475
   -328520.24749   -249988.11647  21313901.013    21313907.731    21313900.508
   -474253.27149   -358502.68347  22765144.896    22765152.801    22765145.628
    319682.78149    245055.97047  21073875.566    21073883.590    21073875.669
    881941.63249    672771.06646  23099388.737    23099397.545    23099389.368
 98  5 11 15 32  0.0000000  0  7G 7G15G19G 2G26G27G13
   -662804.19649   -506199.36347  20464155.471    20464163.248    20464155.599
   -301920.69949   -230300.06246  23498330.935    23498339.415    23498330.556
    837742.13649    641937.65645  23934125.833    23934136.614    23934125.751
   -351843.10049   -268161.79747  21309462.757    21309469.569    21309462.360
   -511494.38449   -387521.77247  22758058.414    22758066.077    22758058.903
    350039.76649    268710.70747  21079652.344    21079660.408    21079652.460
    950224.89049    725978.66046  23112382.463    23112391.509    23112383.289
 98  5 11 15 32 30.0000000  0  7G 7G15G19G 2G26G27G13
   -715165.82849   -547000.62747  20454191.497    20454199.175    20454191.559
   -321429.61349   -245501.75746  23494618.906    23494626.889    23494618.385
    906331.35149    695383.61245  23947177.698    23947188.959    23947177.921
   -374958.70049   -286173.97547  21305063.846    21305070.818    21305063.627
   -548162.36349   -416094.25847  22751080.777    22751088.431    22751081.252
    380927.33649    292778.90047  21085530.069    21085538.156    21085530.233
   1018712.99749    779345.90346  23125415.519    23125424.406    23125416.217
 98  5 11 15 33  0.0000000  0  7G 7G15G19G 2G26G27G13
   -766982.36649   -587377.14447  20444331.145    20444338.833    20444331.219
   -340308.19249   -260212.46146  23491026.105    23491034.691    23491025.567
    975162.94849    749018.50845  23960276.409    23960287.171    23960276.419
   -397878.50849   -304033.58947  21300702.234    21300709.348    21300702.149
   -584269.75349   -444229.91747  22744209.867    22744217.480    22744210.288
    412349.66749    317263.78647  21091509.621    21091517.663    21091509.765
   1087385.03849    832856.46546  23138483.385    23138492.436    23138484.157
 98  5 11 15 33 30.0000000  0  7G 7G15G19G 2G26G27G13
   -818229.25949   -627309.78347  20434579.336    20434586.877    20434579.252
   -358539.45449   -274418.68646  23487556.759    23487565.578    23487556.369
   1044257.47349    802858.23945  23973424.764    23973435.550    23973424.746
   -420569.95749   -321715.26247  21296384.283    21296391.338    21296384.139
   -619806.12649   -471920.63947  22737447.649    22737455.186    22737448.004
    444320.38249    342175.97947  21097593.580    21097601.554    21097593.643
   1156237.12649    886507.31846  23151585.815    23151594.679    23151586.394
 98  5 11 15 34  0.0000000  0  7G 7G15G19G 2G26G27G13
   -868932.01449   -666818.42647  20424930.967    20424938.474    20424930.829
   -376129.74849   -288125.39946  23484209.813    23484218.121    23484209.337
   1113609.72749    856898.78045  23986621.769    23986632.993    23986622.102
   -443034.62849   -339220.22847  21292109.522    21292116.508    21292109.260
   -654785.90849   -499177.65447  22730791.078    22730798.816    22730791.615
    476827.97349    367506.50847  21103779.602    21103787.603    21103779.688
   1225252.59649    940285.46946  23164719.363    23164728.012    23164719.704
 98  5 11 15 34 30.0000000  0  7G 7G15G19G 2G26G27G13
   -919092.73149   -705904.69747  20415385.560    20415393.223    20415385.550
   -393067.40449   -301323.61246  23480986.580    23480994.856    23480986.275
   1183230.82849    911148.84845  23999870.269    23999881.546    23999870.632
   -465266.43349   -356543.73747  21287878.930    21287885.975    21287878.711
   -689176.92749   -525975.88547  22724246.931    22724254.484    22724247.250
    509873.40649    393256.14447  21110067.984    21110075.979    21110068.060
   1294437.22649    994195.46446  23177884.900    23177893.512    23177885.254
 98  5 11 15 35  0.0000000  0  7G 7G15G19G 2G26G27G13
   -968750.70549   -744599.21847  20405935.957    20405943.633    20405935.961
   -409384.62549   -314038.37946  23477881.436    23477889.857    23477881.183
   1253079.95849    965576.58645  24013162.364    24013173.678    24013162.612
   -487303.38149   -373715.40847  21283685.387    21283692.536    21283685.242
   -722988.03949   -552322.24747  22717812.885    22717820.448    22717813.216
    543400.02049    419380.71947  21116447.901    21116455.932    21116447.994
   1363757.92549   1048211.46046  23191076.336    23191084.935    23191076.619
 98  5 11 15 35 30.0000000  0  7G 7G15G19G 2G26G27G13
  -1017922.39149   -782914.81847  20396578.881    20396586.605    20396578.931
   -425082.62249   -326270.63546  23474893.999    23474902.710    23474893.852
   1323146.04049   1020173.36745  24026495.586    24026506.960    24026495.863
   -509153.89649   -390741.81047  21279527.591    21279534.565    21279527.247
   -756224.74649   -578221.01647  22711488.146    22711495.770    22711488.490
    577399.53649    445873.79247  21122917.986    21122925.913    21122917.935
   1433204.99049   1102325.94846  23204291.547    23204300.314    23204292.014
 98  5 11 15 36  0.0000000  0  7G 7G15G19G 2G26G27G13
  -1066586.35849   -820834.79747  20387318.257    20387326.176    20387318.507
   -440128.17749   -337994.53346  23472030.874    23472039.791    23472030.614
   1393444.50549   1074951.22145  24039873.035    24039884.511    24039873.409
   -530789.99849   -407601.13747  21275410.352    21275417.379    21275410.057
   -788849.92349   -603643.27147  22705279.703    22705287.459    22705280.186
    611901.55349    472758.41947  21129483.591    21129491.487    21129483.497
   1502823.49349   1156574.00646  23217539.182    23217548.389    23217539.975
 98  5 11 15 36 30.0000000  0  7G 7G15G19G 2G26G27G13
  -1114734.87149   -858353.12147  20378155.942    20378163.818    20378156.143
   -454529.22149   -349216.19846  23469290.332    23469299.495    23469290.043
   1463964.54649   1129901.74345  24053292.687    24053304.238    24053293.121
   -552223.91949   -424302.92047  21271331.939    21271338.651    21271331.350
   -820867.56049   -628592.10847  22699186.925    22699194.743    22699187.470
    646891.99149    500023.63547  21136141.895    21136149.990    21136142.021
   1572614.24349   1210956.27246  23230820.019    23230829.304    23230820.837
 98  5 11 15 37  0.0000000  0  7G 7G15G19G 2G26G27G13
  -1162369.38449   -895470.92347  20369091.412    20369099.272    20369091.604
   -468286.24249   -359936.01046  23466672.557    23466681.748    23466672.329
   1534707.07249   1185025.60745  24066754.584    24066766.331    24066755.037
   -573446.19049   -440839.77847  21267293.577    21267300.214    21267292.910
   -852285.21949   -653073.43747  22693208.176    22693216.185    22693208.893
    682377.53449    527674.65247  21142894.666    21142902.736    21142894.721
   1642576.87349   1265472.52546  23244133.314    23244142.811    23244134.479
 98  5 11 15 37 30.0000000  0  7G 7G15G19G 2G26G27G13
  -1209487.32549   -932186.20847  20360125.170    20360133.035    20360125.360
   -481397.49749   -370152.60346  23464177.871    23464186.836    23464177.596
   1605673.05049   1240323.58045  24080259.083    24080270.936    24080259.486
   -594437.53749   -457196.70347  21263299.080    21263305.721    21263298.449
   -883118.67649   -677099.54647  22687340.686    22687348.805    22687341.485
    718369.58849    555720.33847  21149744.034    21149751.829    21149743.831
   1712718.00649   1320127.81246  23257480.758    23257490.351    23257481.913
 98  5 11 15 38  0.0000000  0  7G 7G15G19G 2G26G27G13
  -1256085.60049   -968496.55047  20351257.711    20351265.688    20351258.036
   -493874.27649   -379874.80346  23461803.648    23461812.702    23461803.428
   1676856.57849   1295791.07245  24093805.054    24093816.957    24093805.404
   -615197.57149   -473373.37547  21259348.641    21259355.234    21259347.976
   -913383.87249   -700682.84147  22681581.295    22681589.565    22681582.260
    754851.46849    584147.70847  21156686.363    21156694.198    21156686.192
   1783040.06349   1374924.07446  23270862.416    23270872.354    23270863.867
 98  5 11 15 38 30.0000000  0  7G 7G15G19G 2G26G27G13
  -1302178.90949  -1004413.41647  20342486.400    20342494.454    20342486.794
   -505730.65249   -389113.59446  23459547.578    23459556.614    23459547.406
   1748259.44149   1351429.52745  24107392.612    24107404.600    24107393.074
   -635749.77849   -489388.10547  21255437.368    21255444.312    21255437.043
   -943090.65249   -723831.02447  22675928.582    22675936.575    22675929.259
    791815.36149    612950.67047  21163720.192    21163728.284    21163720.243
   1853528.70749   1429850.18846  23284275.842    23284285.946    23284277.511
 98  5 11 15 39  0.0000000  0  7G 7G15G19G 2G26G27G13
  -1347758.40549  -1039929.91847  20333813.006    20333820.967    20333813.317
   -516945.35049   -397852.34546  23457413.690    23457422.500    23457413.506
   1819900.62649   1407253.61945  24121025.868    24121037.745    24121026.111
   -656084.52449   -505233.39047  21251567.751    21251574.744    21251567.492
   -972211.10449   -746522.32447  22670387.367    22670395.194    22670387.853
    829284.61449    642147.42547  21170850.315    21170858.521    21170850.454
   1924191.32449   1484911.82346  23297722.994    23297732.793    23297724.202
 98  5 11 15 39 30.0000000  0  7G 7G15G19G 2G26G27G13
  -1392814.00249  -1075038.17247  20325239.290    20325247.189    20325239.527
   -527514.03649   -406087.73546  23455402.619    23455411.359    23455402.484
   1891770.27949   1463255.77745  24134702.155    24134714.249    24134702.559
   -676207.43949   -520913.60447  21247738.402    21247745.504    21247738.261
  -1000734.16749   -768748.12047  22664959.695    22664967.511    22664960.095
    867254.20749    671734.05347  21178075.796    21178083.966    21178075.921
   1995027.82049   1540108.96546  23311202.683    23311212.780    23311204.073
 98  5 11 15 40  0.0000000  0  7G 7G15G19G 2G26G27G13
  -1437349.42149  -1109741.09947  20316764.484    20316772.352    20316764.728
   -537441.54449   -413823.47746  23453513.529    23453522.187    23453513.456
   1963860.47149   1519429.71145  24148420.603    24148432.894    24148421.006
   -696138.96649   -536444.68647  21243945.791    21243952.708    21243945.469
  -1028651.63749   -790502.02547  22659647.127    22659655.083    22659647.655
    905708.27249    701698.18747  21185393.442    21185401.598    21185393.555
   2066013.82949   1595422.62646  23324711.305    23324721.076    23324712.418
 98  5 11 15 40 30.0000000  0  8G 7G15G19G 2G26G 9G27G13
  -1481367.79449  -1144041.13147  20308387.968    20308395.972    20308388.309
   -546722.59549   -421055.47046  23451747.421    23451756.035    23451747.380
   2036173.27449   1575777.16145  24162181.484    24162193.569    24162181.845
   -715877.26849   -551825.20547  21240189.692    21240196.654    21240189.402
  -1055950.61149   -811773.98447  22654452.191    22654460.333    22654452.867
  -2199284.66359  -1683781.21655  25151861.943    25151871.027    25151862.380
    944652.97749    732044.63447  21192804.472    21192812.597    21192804.529
   2137123.27349   1650832.45846  23338243.408    23338252.914    23338244.133
 98  5 11 15 41  0.0000000  0  8G 7G15G19G 2G26G 9G27G13
  -1524875.88849  -1177943.54447  20300108.726    20300116.685    20300108.996
   -555378.26149   -427800.17846  23450100.336    23450108.946    23450100.200
   2108671.32549   1632268.99445  24175977.577    24175989.575    24175977.882
   -735421.30049   -567054.34547  21236470.663    21236477.583    21236470.308
  -1082658.69149   -832585.52547  22649369.911    22649377.980    22649370.536
  -2329980.81949  -1785622.42745  25126991.397    25127000.379    25126991.761
    984065.17549    762755.35947  21200304.285    21200312.586    21200304.498
   2208320.07849   1706310.40746  23351791.504    23351801.256    23351792.601
 98  5 11 15 41 30.0000000  0  8G 7G15G19G 2G26G 9G27G13
  -1567847.26549  -1211427.73647  20291931.470    20291939.532    20291931.825
   -563398.45049   -434049.70146  23448574.037    23448582.792    23448573.973
   2181364.72849   1688912.99745  24189810.962    24189822.905    24189811.087
   -754730.97549   -582100.86647  21232795.673    21232803.111    21232795.822
  -1108795.10849   -852951.60547  22644396.381    22644404.410    22644396.919
  -2460600.78549  -1887404.20645  25102135.012    25102144.199    25102135.653
   1023955.43549    793838.60947  21207895.160    21207903.505    21207895.423
   2279621.81949   1761870.06246  23365359.873    23365369.595    23365360.935
 98  5 11 15 42  0.0000000  0  8G 7G15G19G 2G26G 9G27G13
  -1610284.41549  -1244495.64647  20283855.983    20283864.028    20283856.318
   -570788.20849   -439807.99446  23447167.932    23447176.746    23447167.851
   2254266.22249   1745719.13245  24203683.548    24203695.908    24203683.856
   -773807.39349   -596965.63047  21229165.835    21229173.027    21229165.736
  -1134372.21149   -872881.85547  22639529.307    22639537.268    22639529.733
  -2591148.81949  -1989130.01145  25077293.030    25077301.814    25077293.190
   1064324.93949    825295.28747  21215577.508    21215585.652    21215577.564
   2351020.98049   1817505.66746  23378946.931    23378956.589    23378947.894
 98  5 11 15 42 30.0000000  0  8G 7G15G19G 2G26G 9G27G13
  -1652191.47949  -1277150.50547  20275881.191    20275889.394    20275881.676
   -577556.23949   -445081.77746  23445880.053    23445888.730    23445879.937
   2327368.32549   1802681.60245  24217594.107    24217606.987    24217594.823
   -792660.14349   -611656.10347  21225578.008    21225585.506    21225578.190
  -1159401.88549   -892385.54347  22634766.331    22634774.304    22634766.751
  -2721640.83249  -2090812.00645  25052461.361    25052470.038    25052461.151
   1105182.63049    857132.37147  21223352.550    21223360.666    21223352.618
   2422523.06649   1873221.44246  23392553.867    23392563.154    23392554.403
 98  5 11 15 43  0.0000000  0  8G 7G15G19G 2G26G 9G27G13
  -1693555.68949  -1309382.35447  20268009.876    20268018.049    20268010.338
   -583690.85249   -449861.99746  23444712.737    23444721.316    23444712.529
   2400683.63649   1859810.21745  24231546.305    24231558.638    24231546.569
   -811281.12949   -626165.97947  21222034.588    21222042.071    21222034.714
  -1183881.32249   -911460.46047  22630108.004    22630116.084    22630108.459
  -2852082.07149  -2192454.57245  25027638.747    25027648.239    25027639.092
   1146537.65149    889356.98747  21231222.366    21231230.346    21231222.271
   2494160.87949   1929043.00045  23406186.251    23406195.443    23406186.637
 98  5 11 15 43 30.0000000  0  8G 7G15G19G 2G26G 9G27G13
  -1734413.01949  -1341219.23347  20260235.122    20260243.123    20260235.422
   -589202.99949   -454157.22246  23443663.735    23443672.401    23443663.499
   2474220.16749   1917111.23045  24245539.896    24245552.329    24245540.247
   -829698.59649   -640517.26647  21218529.840    21218537.404    21218530.007
  -1207812.61649   -930108.25447  22625554.121    22625562.191    22625554.547
  -2982472.71449  -2294057.72245  25002825.877    25002835.546    25002826.462
   1188377.69249    921959.54047  21239184.152    21239192.333    21239184.208
   2565926.13449   1984963.88845  23419842.854    23419851.960    23419843.224
 98  5 11 15 44  0.0000000  0  9G 7G15G19G 2G26G 9G27G13G 4
  -1774763.11849  -1372660.87047  20252556.576    20252564.759    20252557.053
   -594077.29249   -457955.39146  23442736.137    23442744.945    23442735.891
   2547987.45249   1974592.02145  24259577.619    24259590.007    24259577.881
   -847921.82749   -654717.20247  21215062.222    21215069.658    21215062.225
  -1231141.97649   -948287.01847  22621114.645    22621122.840    22621115.137
  -3112789.72449  -2395603.43345  24978027.592    24978036.925    24978027.834
   1230719.76249    954953.27347  21247241.671    21247249.823    21247241.680
   2637826.81749   2040990.28745  23433525.314    23433534.326    23433525.490
   -277889.00755                  24642099.626    24642116.257
 98  5 11 15 44 30.0000000  0  9G 7G15G19G 2G26G 9G27G13G 4
  -1814633.33549  -1403728.57147  20244969.575    20244977.710    20244970.010
   -598332.07449   -461270.85746  23441926.465    23441935.390    23441926.263
   2621953.41249   2032227.62145  24273652.855    24273665.416    24273653.423
   -865973.10149   -668783.14647  21211627.154    21211634.639    21211627.225
  -1253885.10549   -966008.96647  22616786.942    22616794.999    22616787.269
  -3243054.04749  -2497108.14245  24953239.857    24953248.472    24953239.466
   1273540.81349    988320.24547  21255390.145    21255398.507    21255390.294
   2709848.08849   2097110.64645  23447230.123    23447239.642    23447230.781
   -530235.73149   -381789.10345  24616733.610    24616743.165    24616730.988
 98  5 11 15 45  0.0000000  0  9G 7G15G19G 2G26G 9G27G13G 4
  -1854032.43749  -1434429.16747  20237472.191    20237480.287    20237472.611
   -601968.32549   -464104.31146  23441234.731    23441243.507    23441234.346
   2696108.85349   2090010.90945  24287764.255    24287777.017    24287764.944
   -883845.47449   -682709.68647  21208226.123    21208233.656    21208226.236
  -1276042.78249   -983274.72647  22612570.441    22612578.557    22612570.786
  -3373258.50549  -2598566.15745  24928462.413    24928471.330    24928462.414
   1316825.88249   1022048.78747  21263626.973    21263635.480    21263627.204
   2781979.13249   2153316.54945  23460955.899    23460965.887    23460956.883
   -663612.19149   -485718.82455  24591351.297    24591361.958    24591349.376
 98  5 11 15 45 30.0000000  0  9G 7G15G19G 2G26G 9G27G13G 4
  -1892950.32849  -1464754.79647  20230066.308    20230074.471    20230066.822
   -604992.83249   -466461.10446  23440659.043    23440667.898    23440658.793
   2770437.70349   2147929.25945  24301908.826    24301921.617    24301909.422
   -901541.06649   -696498.47347  21204859.014    21204866.310    21204858.915
  -1297610.83449  -1000081.03547  22608465.957    22608474.351    22608466.547
  -3503405.92649  -2699979.83045  24903695.957    24903704.947    24903696.283
   1360574.46349   1056138.51647  21271952.364    21271960.628    21271952.349
   2854199.09949   2209591.74345  23474699.276    23474708.881    23474699.874
   -797045.51859   -589692.86945  24565959.275    24565970.361    24565958.503
 98  5 11 15 45 59.9990000  0  9G 7G15G19G 2G26G 9G27G13G 4
  -1931330.45649  -1494661.38547  20222762.945    20222770.967    20222763.331
   -607377.04549   -468318.89346  23440205.311    23440214.059    23440205.190
   2844950.88249   2205991.26945  24316088.288    24316101.191    24316088.933
   -919025.77249   -710122.92647  21201531.650    21201539.052    21201531.686
  -1318572.91249  -1016415.15547  22604477.016    22604485.458    22604477.636
  -3633477.50949  -2801334.23145  24878944.456    24878953.341    24878944.454
   1404803.41549   1090602.56247  21280368.764    21280377.225    21280368.859
   2926532.38149   2265955.24045  23488463.837    23488473.429    23488464.595
   -930517.43049   -693696.93445  24540559.393    24540571.493    24540559.707
 98  5 11 15 46 29.9990000  0  9G 7G15G19G 2G26G 9G27G13G 4
  -1969179.20749  -1524153.91547  20215560.661    20215568.590    20215560.966
   -609130.91949   -469685.59246  23439871.506    23439880.354    23439871.443
   2919639.35049   2264189.89345  24330301.222    24330314.049    24330301.758
   -936297.13949   -723581.14747  21198244.855    21198252.463    21198245.077
  -1338975.37649  -1032313.21847  22600594.611    22600603.046    22600595.188
  -3763491.09949  -2902643.59845  24854203.193    24854212.566    24854203.723
   1449495.61449   1125427.58147  21288873.317    21288881.972    21288873.570
   2998971.43749   2322401.15445  23502248.703    23502258.338    23502249.311
  -1064039.50849   -797740.08745  24515150.327    24515163.110    24515151.247
 98  5 11 15 46 59.9990000  0  9G 7G15G19G 2G26G 9G27G13G 4
  -2006519.70749  -1553250.40247  20208454.914    20208462.934    20208455.322
   -610281.34149   -470581.94146  23439652.694    23439661.265    23439652.604
   2994473.17649   2322501.72845  24344541.580    24344554.651    24344542.180
   -953375.38249   -736888.87847  21194995.276    21195002.603    21194995.216
  -1358850.62649  -1047800.46847  22596812.712    22596820.957    22596813.105
  -3893455.21649  -3003914.29045  24829472.709    24829481.166    24829472.435
   1494619.36149   1160588.86647  21297460.210    21297468.801    21297460.360
   3071471.36849   2378894.50745  23516045.418    23516054.690    23516045.599
  -1197626.45849   -901833.74245  24489729.603    24489742.422    24489730.464
 98  5 11 15 47 29.9990000  0  9G 7G15G19G 2G26G 9G27G13G 4
  -2043349.36349  -1581948.82647  20201446.510    20201454.457    20201446.850
   -610813.36449   -470996.50446  23439551.529    23439560.125    23439551.329
   3069471.49849   2380941.76845  24358813.461    24358826.516    24358814.017
   -970249.41149   -750037.47947  21191784.390    21191791.621    21191784.227
  -1378187.37849  -1062868.10447  22593132.984    22593141.369    22593133.507
  -4023353.13049  -3105133.52245  24804754.348    24804762.313    24804753.674
   1540181.01049   1196091.38547  21306130.402    21306138.969    21306130.534
   3144034.50849   2435437.10745  23529853.882    23529863.051    23529853.919
  -1331242.17049  -1005949.82945  24464303.843    24464316.391    24464304.240
 98  5 11 15 47 59.9990000  0  9G 7G15G19G 2G26G 9G27G13G 4
  -2079709.23749  -1610281.19047  20194527.591    20194535.402    20194527.807
   -610736.83949   -470936.84446  23439566.150    23439574.743    23439565.939
   3144624.62049   2439502.47745  24373114.914    24373127.818    24373115.376
   -986933.11849   -763037.78247  21188609.347    21188616.845    21188609.438
  -1397001.42449  -1077528.43747  22589552.719    22589561.230    22589553.314
  -4153171.33049  -3206290.48245  24780050.326    24780058.676    24780050.148
   1586163.40249   1231921.75547  21314880.521    21314889.203    21314880.728
   3216657.58649   2492026.42445  23543673.632    23543682.929    23543673.711
  -1464865.10549  -1110071.53445  24438876.342    24438888.833    24438876.676
 98  5 11 15 48 29.9990000  0  9G 7G15G19G 2G26G 9G27G13G 4
  -2115619.62849  -1638263.30147  20187694.071    20187701.882    20187694.290
   -610048.07349   -470400.12246  23439697.246    23439705.899    23439697.033
   3219939.45349   2498189.14845  24387447.055    24387460.017    24387447.601
  -1003415.05449   -775880.85947  21185472.884    21185480.471    21185473.064
  -1415275.15049  -1091767.73847  22586075.276    22586083.902    22586075.975
  -4282896.59449  -3307375.23345  24755364.008    24755372.760    24755364.288
   1632581.45349   1268091.60347  21323713.345    21323722.364    21323713.856
   3289336.29349   2548659.07245  23557503.598    23557513.371    23557504.000
  -1598458.56449  -1214170.24245  24413453.920    24413466.831    24413454.592
 98  5 11 15 48 59.9990000  0  9G 7G15G19G 2G26G 9G27G13G 4
  -2151084.30049  -1665898.10147  20180945.349    20180953.153    20180945.573
   -608747.34149   -469386.55846  23439944.854    23439953.493    23439944.569
   3295433.30649   2557015.32345  24401813.129    24401826.331    24401813.766
  -1019692.73549   -788564.77747  21182375.204    21182382.963    21182375.542
  -1432983.33149  -1105566.35947  22582705.722    22582714.194    22582706.259
  -4412524.79049  -3408384.18745  24730696.863    24730705.395    24730696.966
   1679439.27149   1304604.13447  21332630.173    21332639.149    21332630.655
   3362066.87949   2605332.12645  23571343.430    23571353.712    23571344.233
  -1732019.81449  -1318243.81845  24388038.311    24388050.796    24388038.754
 98  5 11 15 49 29.9990000  0  9G 7G15G19G 2G26G 9G27G13G 4
  -2186115.97949  -1693195.50047  20174279.095    20174286.846    20174279.292
   -606855.33249   -467912.28046  23440304.713    23440313.422    23440304.529
   3371093.91049   2615971.42345  24416211.158    24416224.322    24416211.696
  -1035781.20549   -801101.25847  21179313.717    21179321.447    21179314.043
  -1450149.48949  -1118942.62147  22579439.199    22579447.614    22579439.688
  -4542090.81849  -3509344.75945  24706041.484    24706049.837    24706041.270
   1726718.69649   1341445.19047  21341627.407    21341636.166    21341627.708
   3434844.73149   2662042.03545  23585192.651    23585203.036    23585193.538
  -1865572.23749  -1422310.51245  24362624.009    24362636.614    24362624.529
 98  5 11 15 49 59.9990000  0  9G 7G15G19G 2G26G 9G27G13G 4
  -2220681.38849  -1720129.57547  20167701.524    20167709.268    20167701.723
   -604362.33949   -465969.71345  23440779.034    23440787.980    23440778.744
   3446936.16649   2675069.05945  24430643.450    24430656.785    24430644.061
  -1051658.43849   -813473.13947  21176292.330    21176300.126    21176292.734
  -1466770.08149  -1131893.77647  22576276.447    22576284.828    22576276.894
  -4671587.93649  -3610251.63745  24681399.094    24681407.561    24681398.762
   1774439.21849   1378629.95447  21350708.377    21350717.194    21350708.684
   3507698.08349   2718810.78945  23599056.603    23599066.633    23599057.191
  -1999117.78149  -1526371.86045  24337211.014    24337223.754    24337211.812
 98  5 11 15 50 29.9990000  0  9G 7G15G19G 2G26G 9G27G13G 4
  -2254752.62949  -1746678.58047  20161217.881    20161225.716    20161218.170
   -601266.64949   -463557.47545  23441367.735    23441377.002    23441367.670
   3522975.98649   2734320.64445  24445113.134    24445126.879    24445114.113
  -1067322.40649   -825678.84247  21173311.959    21173319.386    21173311.994
  -1482844.13849  -1144419.04947  22573217.630    22573226.070    22573218.136
  -4801033.51649  -3711118.37845  24656766.250    24656774.874    24656766.264
   1822605.12149   1416161.78147  21359873.894    21359882.893    21359874.434
   3580625.59049   2775637.34145  23612934.947    23612944.372    23612934.925
  -2132682.31249  -1630447.97445  24311794.601    24311807.190    24311795.369
 98  5 11 15 50 59.9990000  0  9G 7G15G19G 2G26G 9G27G13G 4
  -2288298.02549  -1772817.83747  20154834.490    20154842.271    20154834.722
   -597560.78549   -460669.81245  23442072.817    23442082.075    23442072.719
   3599220.73549   2793731.96145  24459622.222    24459635.924    24459623.081
  -1082778.07049   -837722.22447  21170370.927    21170378.286    21170370.883
  -1498375.70349  -1156521.61547  22570262.241    22570270.506    22570262.603
  -4930412.92349  -3811933.50845  24632145.849    24632154.894    24632146.148
   1871220.57749   1454043.89747  21369125.246    21369134.163    21369125.711
   3653641.45049   2832532.73945  23626829.798    23626838.981    23626829.482
  -2266286.14449  -1734554.69645  24286371.041    24286383.190    24286371.507
 98  5 11 15 51 29.9990000  0  9G 7G15G19G 2G26G 9G27G13G 4
  -2321309.61649  -1798541.14947  20148552.578    20148560.369    20148552.801
   -593243.35649   -457305.58346  23442894.697    23442903.570    23442894.407
   3675648.93149   2853286.22245  24474166.162    24474179.883    24474167.069
  -1098033.23249   -849609.38647  21167468.139    21167475.353    21167467.966
  -1513379.23349  -1168212.72847  22567407.135    22567415.501    22567407.596
  -5059720.89949  -3912692.94145  24607539.623    24607548.437    24607539.680
   1920293.40949   1492282.40847  21378463.563    21378472.482    21378463.968
   3726749.94449   2889500.33545  23640741.761    23640751.069    23640741.620
  -2399927.68949  -1838690.81445  24260939.861    24260951.875    24260940.356
 98  5 11 15 51 59.9990000  0  9G 7G15G19G 2G26G 9G27G13G 4
  -2353801.84949  -1823859.76047  20142369.530    20142377.328    20142369.729
   -588328.95349   -453476.15746  23443830.032    23443838.723    23443829.795
   3752233.85449   2912962.59945  24488739.955    24488753.715    24488740.862
  -1113113.44449   -861360.21347  21164598.434    21164605.698    21164598.328
  -1527845.16949  -1179484.93047  22564654.363    22564662.797    22564654.885
  -5188954.27149  -4013394.35745  24582947.514    24582955.968    24582947.428
   1969810.99149   1530867.48447  21387886.742    21387895.431    21387886.878
   3799918.54249   2946514.70545  23654664.720    23654674.782    23654665.234
  -2533614.62849  -1942862.28745  24235499.740    24235512.047    24235500.518
 98  5 11 15 52 29.9990000  0  9G 7G15G19G 2G26G 9G27G13G 4
  -2385775.59149  -1848774.36047  20136285.235    20136292.896    20136285.325
   -582805.10749   -449171.88446  23444881.450    23444889.889    23444881.091
   3828972.32149   2972758.59845  24503343.490    24503356.701    24503343.920
  -1128016.54549   -872973.03647  21161762.470    21161769.729    21161762.361
  -1541743.39949  -1190314.76647  22562009.922    22562018.102    22562010.192
  -5318094.35249  -4114023.00345  24558372.952    24558381.475    24558372.980
   2019790.31549   1569812.35847  21397397.310    21397406.178    21397397.632
   3873144.92049   3003574.13345  23668598.428    23668609.489    23668599.834
  -2667317.88849  -2047046.49745  24210056.760    24210069.118    24210057.511
 98  5 11 15 52 59.9990000  0  9G 7G15G19G 2G26G 9G27G13G 4
  -2417244.02849  -1873295.21347  20130296.989    20130304.651    20130297.082
   -576670.40749   -444391.59446  23446048.727    23446057.212    23446048.435
   3905844.25949   3032658.62145  24517972.182    24517985.134    24517972.384
  -1142728.28849   -884436.75247  21158963.036    21158970.173    21158962.828
  -1555066.83749  -1200696.71947  22559474.357    22559482.805    22559474.885
  -5447128.65849  -4214569.21945  24533818.002    24533827.134    24533818.542
   2070239.29849   1609123.19047  21406997.551    21407006.420    21406997.782
   3946423.85849   3060674.53845  23682543.156    23682554.126    23682544.371
  -2801011.30649  -2151222.99045  24184615.346    24184627.947    24184616.367
 98  5 11 15 53 29.9990000  0  9G 7G15G19G 2G26G 9G27G13G 4
  -2448254.42049  -1897459.14847  20124395.874    20124403.576    20124396.033
   -569955.98749   -439159.55946  23447326.336    23447334.873    23447326.116
   3982812.90849   3092633.98545  24532618.971    24532631.903    24532619.215
  -1157272.11649   -895769.62247  21156195.394    21156202.594    21156195.254
  -1567836.77249  -1210647.36447  22557044.233    22557052.832    22557044.908
  -5576095.98849  -4315063.28345  24509276.142    24509285.382    24509276.783
   2121125.01249   1648774.34247  21416680.803    21416689.690    21416681.055
   4019719.95749   3117788.33045  23696490.824    23696501.957    23696492.159
  -2934705.67349  -2255400.25645  24159173.684    24159186.625    24159175.083
 98  5 11 15 53 59.9990000  0  9G 7G15G19G 2G26G 9G27G13G 4
  -2478791.72249  -1921254.44147  20118584.550    20118592.464    20118584.936
   -562638.09549   -433457.32246  23448718.947    23448727.402    23448718.695
   4059906.88049   3152707.00845  24547289.365    24547302.627    24547289.927
  -1171626.04249   -906954.51447  21153464.064    21153471.139    21153463.824
  -1580020.93349  -1220141.56247  22554725.553    22554734.298    22554726.343
  -5704986.76049  -4415497.61745  24484749.608    24484758.357    24484749.704
   2172459.34649   1688775.06847  21426449.342    21426458.323    21426449.718
   4093050.73349   3174929.07945  23710445.102    23710456.495    23710446.591
  -3068366.60249  -2359551.51045  24133738.886    24133751.602    24133740.032
 98  5 11 15 54 29.9990000  0  9G 7G15G19G 2G26G 9G27G13G 4
  -2508896.80049  -1944712.94447  20112855.991    20112863.637    20112856.146
   -554746.09449   -427307.69745  23450220.719    23450229.083    23450220.427
   4137106.43549   3212862.30045  24561980.116    24561993.500    24561980.795
  -1185804.15249   -918002.41647  21150765.906    21150773.217    21150765.846
  -1591684.42249  -1229230.04847  22552506.374    22552514.862    22552506.894
  -5833835.94749  -4515899.59145  24460230.149    24460239.138    24460230.526
   2224207.61449   1729098.32847  21436296.935    21436305.782    21436297.149
   4166385.58049   3232073.06645  23724400.774    23724411.745    23724401.876
  -3202023.88249  -2463699.84245  24108304.842    24108317.361    24108305.851
 98  5 11 15 54 59.9990000  0  9G 7G15G19G 2G26G 9G27G13G 4
  -2538537.87349  -1967809.88047  20107215.399    20107223.125    20107215.632
   -546254.81049   -420691.11246  23451836.649    23451845.041    23451836.368
   4214447.99549   3273128.23945  24576697.951    24576711.434    24576698.359
  -1199775.65749   -928889.32047  21148107.257    21148114.576    21148107.206
  -1602822.68649  -1237909.25847  22550386.859    22550395.347    22550387.412
  -5962617.84049  -4616249.16245  24435723.510    24435732.762    24435724.266
   2276386.10349   1769756.82947  21446226.220    21446235.081    21446226.425
   4239750.32049   3289240.32445  23738361.903    23738372.696    23738362.866
  -3335655.32949  -2567828.11645  24082875.517    24082888.019    24082876.406
 98  5 11 15 55 29.9990000  0  9G 7G15G19G 2G26G 9G27G13G 4
  -2567720.48349  -1990549.57547  20101662.134    20101669.855    20101662.365
   -537171.77949   -413613.50245  23453564.921    23453573.540    23453564.790
   4291937.53449   3333509.48245  24591443.962    24591457.368    24591444.196
  -1213554.15549   -939625.83547  21145485.358    21145492.637    21145485.245
  -1613456.49449  -1246195.39247  22548363.350    22548371.808    22548363.889
  -6091340.63749  -4716552.59845  24411228.532    24411237.651    24411229.228
   2328978.89449   1810738.15447  21456234.399    21456243.203    21456234.577
   4313137.85049   3346425.38045  23752327.807    23752337.845    23752328.079
  -3469270.15249  -2671943.39145  24057449.371    24057461.849    24057450.218
 98  5 11 15 55 59.9990000  0  9G 7G15G19G 2G26G 9G27G13G 4
  -2596447.83849  -2012934.52747  20096195.414    20096203.236    20096195.722
   -527502.16949   -406078.72045  23455405.151    23455413.632    23455404.779
   4369573.70849   3394005.00745  24606217.594    24606231.233    24606218.054
  -1227134.48249   -950207.92847  21142901.031    21142908.433    21142901.000
  -1623610.02149  -1254107.27447  22546431.148    22546439.683    22546431.747
  -6219996.91049  -4816804.26445  24386746.491    24386755.241    24386746.771
   2381982.82149   1852039.83847  21466320.695    21466329.625    21466320.958
   4386533.83949   3403616.97645  23766294.533    23766304.749    23766294.983
  -3602884.74349  -2776058.53345  24032023.171    24032035.776    24032024.105
 98  5 11 15 56 29.9990000  0  9G 7G15G19G 2G26G 9G27G13G 4
  -2624716.41149  -2034961.98747  20090815.934    20090823.888    20090816.360
   -517249.11349   -398089.39045  23457355.954    23457364.815    23457355.742
   4447360.02649   3454617.53745  24621020.040    24621033.612    24621020.431
  -1240505.76849   -960627.12947  21140356.509    21140363.996    21140356.528
  -1633294.51149  -1261653.67847  22544588.194    22544596.813    22544588.912
  -6348559.82449  -4916983.16745  24362281.479    24362290.579    24362282.013
   2435406.29449   1893668.44947  21476487.083    21476495.841    21476487.175
   4459930.46849   3460809.09545  23780261.780    23780271.723    23780261.949
  -3736508.60649  -2880180.89245  24006595.539    24006607.950    24006596.147
 98  5 11 15 56 59.9990000  0  9G 7G15G19G 2G26G 9G27G13G 4
  -2652494.15849  -2056606.98747  20085530.124    20085537.955    20085530.436
   -506391.96949   -389629.33945  23459422.047    23459430.872    23459421.757
   4525309.20949   3515356.96845  24635853.642    24635867.121    24635853.922
  -1253667.95949   -970883.40647  21137851.764    21137859.333    21137851.877
  -1642459.08349  -1268794.94647  22542844.441    22542852.900    22542845.009
  -6476993.34749  -5017061.18845  24337841.376    24337850.688    24337841.930
   2489266.31649   1935637.23147  21486736.481    21486745.112    21486736.421
   4533356.23649   3518023.90945  23794233.986    23794244.253    23794234.549
  -3870113.84149  -2984288.73145  23981170.842    23981183.448    23981171.897
 98  5 11 15 57 29.9990000  0  9G 7G15G19G 2G26G 9G27G13G 4
  -2679790.97949  -2077877.23847  20080335.671    20080343.531    20080336.030
   -494942.78149   -380707.88645  23461600.731    23461609.575    23461600.489
   4603398.29549   3576205.41045  24650713.697    24650727.146    24650713.941
  -1266635.68049   -980988.14647  21135384.009    21135391.680    21135384.204
  -1651106.33649  -1275533.10547  22541199.148    22541207.420    22541199.537
  -6605293.36449  -5117035.23045  24313426.705    24313435.967    24313427.218
   2543546.94449   1977933.75447  21497065.757    21497074.453    21497065.763
   4606799.32549   3575252.23645  23808210.210    23808220.056    23808210.332
  -4003709.93249  -3088389.49445  23955748.153    23955760.879    23955749.341
 98  5 11 15 57 59.9990000  0  9G 7G15G19G 2G26G 9G27G13G 4
  -2706601.38849  -2098768.47047  20075233.910    20075241.682    20075234.171
   -482899.03549   -371323.20446  23463892.547    23463901.533    23463892.341
   4681616.65249   3637154.58945  24665597.954    24665611.697    24665598.540
  -1279407.00049   -990939.84647  21132953.774    21132961.408    21132953.920
  -1659216.16949  -1281852.49347  22539656.084    22539664.252    22539656.356
  -6733443.81349  -5216892.73945  24289040.661    24289049.798    24289040.927
   2598245.03549   2020555.57847  21507474.300    21507483.236    21507474.500
   4680265.89449   3632498.88545  23822189.968    23822200.373    23822190.689
  -4137283.41549  -3192472.60945  23930330.070    23930342.434    23930330.986
 98  5 11 15 58 29.9990000  0  9G 7G15G19G 2G26G 9G27G13G 4
  -2732938.64149  -2119291.00947  20070221.970    20070229.879    20070222.371
   -470272.06749   -361484.07046  23466295.301    23466304.455    23466295.195
   4759951.72549   3698194.71645  24680504.512    24680518.649    24680505.269
  -1292007.77049  -1000758.65647  21130555.826    21130563.588    21130556.085
  -1666779.54549  -1287746.07647  22538216.840    22538225.041    22538217.117
  -6861452.54949  -5316639.81045  24264681.295    24264690.546    24264681.653
   2653345.15049   2063490.67347  21517959.629    21517968.493    21517959.799
   4753755.02849   3689763.05845  23836174.601    23836184.946    23836175.272
  -4270815.14049  -3296523.13345  23904919.833    23904932.141    23904920.584
 98  5 11 15 58 59.9990000  0  9G 7G15G19G 2G26G 9G27G13G 4
  -2758802.45849  -2139444.63147  20065300.264    20065308.170    20065300.646
   -457060.99649   -351189.78146  23468809.516    23468818.475    23468809.258
   4838393.84149   3759318.24045  24695431.805    24695445.919    24695432.327
  -1304442.45049  -1010448.04047  21128189.551    21128197.369    21128189.827
  -1673787.06249  -1293206.51347  22536883.047    22536891.574    22536883.651
  -6989332.02249  -5416286.15645  24240347.065    24240355.877    24240346.937
   2708835.63349   2106729.94347  21528518.883    21528528.045    21528519.302
   4827274.40049   3747050.82745  23850164.889    23850175.253    23850165.534
  -4404288.02949  -3400527.87845  23879520.709    23879533.017    23879521.523
 98  5 11 15 59 29.9990000  0  9G 7G15G19G 2G26G 9G27G13G 4
  -2784190.82249  -2159227.77747  20060468.995    20060476.907    20060469.371
   -443250.71749   -340428.53346  23471437.658    23471446.496    23471437.430
   4916961.33449   3820539.46245  24710382.781    24710396.816    24710383.278
  -1316670.73249  -1019976.59447  21125862.497    21125870.434    21125862.868
  -1680238.54849  -1298233.69247  22535655.452    22535663.962    22535656.013
  -7117085.20949  -5515834.09245  24216036.418    24216045.245    24216036.340
   2764734.39749   2150287.35447  21539155.940    21539165.327    21539156.480
   4900828.57049   3804365.71645  23864161.589    23864172.225    23864162.541
  -4537690.40749  -3504477.63645  23854134.836    23854147.140    23854135.785
 98  5 11 15 59 59.9990000  0  9G 7G15G19G 2G26G 9G27G13G 4
  -2809140.67649  -2178669.22647  20055721.107    20055729.101    20055721.541
   -428869.35649   -329222.32446  23474174.485    23474183.251    23474174.248
   4995637.09149   3881845.03245  24725354.341    24725368.529    24725354.788
  -1328710.42949  -1029358.19947  21123571.607    21123579.401    21123571.814
  -1686166.78549  -1302853.13947  22534527.257    22534535.863    22534527.953
  -7244751.17649  -5615314.07345  24191742.189    24191751.173    24191742.297
   2821022.47549   2194148.14347  21549867.212    21549876.595    21549867.753
   4974377.54049   3861676.56045  23878157.507    23878168.186    23878158.525
  -4671037.90249  -3608384.62545  23828759.728    23828771.899    23828760.623
 98  5 11 16  0 29.9990000  0  9G 7G15G19G 2G26G 9G27G13G 4
  -2833647.30649  -2197765.31047  20051057.638    20051065.626    20051058.058
   -413914.13249   -317568.94546  23477020.340    23477029.205    23477020.225
   5074442.53249   3943251.64345  24740350.351    24740364.718    24740351.158
  -1340548.12949  -1038582.40847  21121318.828    21121326.808    21121319.181
  -1691583.76349  -1307074.20947  22533496.561    22533505.083    22533497.202
  -7372329.24649  -5714725.58345  24167464.752    24167473.778    24167465.019
   2877712.41849   2238322.06547  21560655.131    21560664.448    21560655.587
   5047905.88549   3918971.28145  23892149.939    23892160.229    23892150.592
  -4804333.37549  -3712251.06945  23803394.526    23803406.588    23803395.169
 98  5 11 16  0 59.9990000  0  9G 7G15G19G 2G26G 9G27G13G 4
  -2857701.75449  -2216509.03547  20046480.272    20046488.217    20046480.636
   -398382.49949   -305466.38746  23479976.042    23479984.704    23479975.865
   5153384.01649   4004764.25745  24755372.917    24755387.146    24755373.308
  -1352158.95449  -1047629.82147  21119109.390    21119117.359    21119109.738
  -1696490.54549  -1310897.71347  22532562.959    22532571.404    22532563.514
  -7499819.10349  -5814068.28545  24143204.556    24143213.418    24143204.458
   2934821.08049   2282822.25847  21571522.463    21571531.915    21571523.042
   5121409.91149   3976247.16245  23906137.202    23906147.713    23906137.991
  -4937604.07649  -3816098.22945  23778033.720    23778045.839    23778034.400
 98  5 11 16  1 29.9990000  0  9G 7G15G19G 2G26G 9G27G13G 4
  -2881293.60849  -2234892.30647  20041990.842    20041998.846    20041991.269
   -382265.30449   -292907.56346  23483042.905    23483051.703    23483042.772
   5232472.76249   4066391.63645  24770422.841    24770437.445    24770423.388
  -1363526.31949  -1056487.52847  21116946.263    21116954.242    21116946.617
  -1700888.59149  -1314324.80147  22531726.059    22531734.525    22531726.628
  -7627209.81249  -5913333.81945  24118962.533    24118971.716    24118962.853
   2992366.24649   2327662.58247  21582473.292    21582482.435    21582473.569
   5194894.22049   4033507.54145  23920120.813    23920131.446    23920121.605
  -5070845.61449  -3919922.63145  23752678.598    23752690.680    23752679.287
 98  5 11 16  1 59.9990000  0  9G 7G15G19G 2G26G 9G27G13G 4
  -2904410.11649  -2252905.17647  20037592.058    20037599.952    20037592.373
   -365562.84849   -279892.75446  23486221.405    23486230.036    23486221.127
   5311701.34149   4128127.95845  24785499.766    24785514.240    24785500.144
  -1374661.68649  -1065164.46247  21114827.318    21114835.302    21114827.668
  -1704773.09649  -1317351.72747  22530986.848    22530995.373    22530987.475
  -7754481.81049  -6012506.77745  24094743.014    24094752.708    24094743.573
   3050352.95949   2372846.98747  21593507.973    21593516.989    21593508.180
   5268360.95149   4090754.37745  23934101.512    23934111.648    23934101.951
  -5204041.00949  -4023711.07745  23727332.377    23727344.338    23727333.008
 98  5 11 16  2 29.9990000  0  9G 7G15G19G 2G26G 9G27G13G 4
  -2927066.86149  -2270559.79147  20033280.703    20033288.551    20033280.971
   -348298.95549   -266440.42146  23489506.559    23489515.294    23489506.437
   5391039.53249   4189949.69045  24800597.725    24800611.827    24800598.071
  -1385598.98149  -1073687.05147  21112746.159    21112754.041    21112746.374
  -1708151.40549  -1319984.21247  22530343.763    22530352.529    22530344.647
  -7881652.42649  -6111600.77945  24070544.002    24070552.964    24070543.887
   3108759.79449   2418358.74047  21604622.296    21604631.544    21604622.688
   5341798.54149   4147978.39245  23948075.664    23948086.512    23948076.709
  -5337222.29949  -4127488.53245  23701988.282    23702000.643    23701989.412
 98  5 11 16  2 59.9990000  0  9G 7G15G19G 2G26G 9G27G13G 4
  -2949270.58049  -2287861.39847  20029055.562    20029063.326    20029055.744
   -330477.75349   -252553.79346  23492897.730    23492906.536    23492897.698
   5470461.93948   4251837.06345  24815711.670    24815725.739    24815712.050
  -1396353.26149  -1082067.03147  21110699.762    21110707.600    21110699.917
  -1711018.83549  -1322218.61247  22529798.082    22529806.901    22529799.017
  -8008730.10449  -6210622.34246  24046361.782    24046370.814    24046361.772
   3167569.38449   2464184.33447  21615813.475    21615822.640    21615813.807
   5415217.52949   4205187.96045  23962046.599    23962057.768    23962047.950
  -5470377.54249  -4231245.70845  23676649.080    23676661.863    23676650.627
 98  5 11 16  3 29.9990000  0  8G 7G15G 2G26G 9G27G13G 4
  -2971014.12249  -2304804.42447  20024917.815    20024925.642    20024918.051
   -312084.56249   -238221.47646  23496397.658    23496406.730    23496397.833
  -1406924.05249  -1090304.02847  21108688.135    21108696.090    21108688.403
  -1713374.48649  -1324054.21747  22529349.647    22529358.719    22529350.799
  -8135690.48749  -6309552.50545  24022201.401    24022211.109    24022202.031
   3226775.25049   2510318.72347  21627079.805    21627089.241    21627080.398
   5488625.52549   4262388.98145  23976016.125    23976026.857    23976017.088
  -5603450.68249  -4334938.90745  23651326.581    23651338.742    23651327.569
 98  5 11 16  3 59.9990000  0  8G 7G15G 2G26G 9G27G13G 4
  -2992317.13449  -2321404.18247  20020863.878    20020871.820    20020864.201
   -293128.78549   -223450.78446  23500004.940    23500013.998    23500005.049
  -1417334.92649  -1098416.41947  21106706.968    21106714.987    21106707.283
  -1715225.29949  -1325496.43547  22528997.751    22529006.583    22528998.634
  -8262534.60949  -6408392.08945  23998063.569    23998073.421    23998064.463
   3286368.01849   2556754.58247  21638420.042    21638429.407    21638420.595
   5562003.73949   4319566.76345  23989979.459    23989990.331    23989980.568
  -5736436.02749  -4438563.67745  23626020.000    23626032.408    23626021.159
 98  5 11 16  4 29.9990000  0  8G 7G15G 2G26G 9G27G13G 4
  -3013184.25949  -2337664.28947  20016892.942    20016900.959    20016893.326
   -273600.46749   -208233.95146  23503721.169    23503730.228    23503721.211
  -1427574.09949  -1106395.01047  21104758.424    21104766.530    21104758.873
  -1716571.83949  -1326545.72447  22528741.443    22528750.345    22528742.393
  -8389248.46249  -6507130.14246  23973951.996    23973960.561    23973951.689
   3346342.61949   2603487.97447  21649833.018    21649842.238    21649833.391
   5635359.12149   4376726.78745  24003938.749    24003949.460    24003939.554
  -5869329.06249  -4542116.54745  23600731.253    23600743.507    23600732.379
 98  5 11 16  4 59.9990000  0  8G 7G15G 2G26G 9G27G13G 4
  -3033635.94949  -2353600.68047  20013001.145    20013009.115    20013001.489
   -253520.73449   -192587.45046  23507542.286    23507551.367    23507542.307
  -1437654.28449  -1114249.71947  21102840.293    21102848.377    21102840.686
  -1717459.81049  -1327237.68047  22528572.460    22528581.373    22528573.376
  -8515846.18849  -6605777.71346  23949861.083    23949869.766    23949860.975
   3406667.49749   2650494.31247  21661312.663    21661321.687    21661312.870
   5708671.46249   4433853.25945  24017889.706    24017900.411    24017890.436
  -6002139.87249  -4645605.34445  23575458.077    23575470.282    23575459.151
 98  5 11 16  5 29.9990000  0  8G 7G15G 2G26G 9G27G13G 4
  -3053654.77249  -2369199.78047  20009191.647    20009199.702    20009192.037
   -232873.05649   -176498.38846  23511471.431    23511480.549    23511471.425
  -1447544.77049  -1121956.61147  21100958.379    21100966.283    21100958.601
  -1717876.65549  -1327562.52447  22528493.515    22528502.101    22528494.103
  -8642303.60849  -6704315.94146  23925797.136    23925805.697    23925796.883
   3467369.24749   2697794.30947  21672863.579    21672872.934    21672864.049
   5781948.94849   4490952.54345  24031834.140    24031844.691    24031834.769
  -6134859.11549  -4749022.78845  23550202.002    23550214.499    23550203.338
 98  5 11 16  5 59.9990000  0  8G 7G15G 2G26G 9G27G13G 4
  -3073234.66749  -2384456.84947  20005465.800    20005473.813    20005466.131
   -211656.52549   -159966.07546  23515508.778    23515517.961    23515508.837
  -1457234.67449  -1129507.20547  21099114.498    21099122.374    21099114.687
  -1717797.69849  -1327501.03247  22528508.347    22528517.158    22528509.164
  -8768623.74949  -6802747.21146  23901759.108    23901767.698    23901758.951
   3528462.63749   2745399.48847  21684489.010    21684498.685    21684489.740
   5855196.53649   4548028.58145  24045772.386    24045783.147    24045773.361
  -6267509.41249  -4852386.52345  23524959.498    23524971.868    23524960.706
 98  5 11 16  6 29.9990000  0  8G 7G15G 2G26G 9G27G13G 4
  -3092367.61649  -2399365.65147  20001824.947    20001832.951    20001825.243
   -189880.57949   -142997.86146  23519652.379    23519661.831    23519652.745
  -1466703.79149  -1136885.74847  21097312.554    21097320.498    21097312.797
  -1717219.02949  -1327050.15247  22528618.328    22528627.311    22528619.270
  -8894821.70449  -6901083.24846  23877744.690    23877753.037    23877744.200
   3589932.78049   2793298.23647  21696186.785    21696196.133    21696187.131
   5928414.78949   4605081.75745  24059705.107    24059716.144    24059706.216
  -6400110.63849  -4955712.02845  23499726.070    23499738.560    23499727.369
 98  5 11 16  6 59.9990000  0  8G 7G15G 2G26G 9G27G13G 4
  -3111047.65549  -2413921.53847  19998270.136    19998278.249    19998270.553
   -167555.87949   -125602.08246  23523900.852    23523910.127    23523900.866
  -1475949.80249  -1144090.45147  21095553.381    21095561.072    21095553.369
  -1716134.45649  -1326205.05847  22528824.553    22528833.696    22528825.668
  -9020915.68349  -6999338.29446  23853749.490    23853758.115    23853749.389
   3651791.10049   2841499.46247  21707958.107    21707967.432    21707958.436
   6001588.44049   4662100.11845  24073629.851    24073640.724    24073630.661
  -6532669.58549  -5059004.58645  23474501.032    23474513.202    23474502.137
 98  5 11 16  7 29.9990000  0  8G 7G15G 2G26G 9G27G13G 4
  -3129278.58849  -2428127.46547  19994800.970    19994809.065    19994801.355
   -144681.88649   -107778.25445  23528253.360    23528262.892    23528253.496
  -1484972.18749  -1151120.89547  21093836.292    21093844.211    21093836.497
  -1714532.30049  -1324956.65347  22529129.639    22529138.604    22529130.569
  -9146903.67449  -7097510.73246  23829774.242    23829783.377    23829774.696
   3714039.20749   2890004.42147  21719803.569    21719812.900    21719803.915
   6074700.22749   4719070.29245  24087542.532    24087553.436    24087543.419
  -6665185.45949  -5162263.60545  23449284.402    23449296.227    23449285.142
 98  5 11 16  7 59.9990000  0  8G 7G15G 2G26G 9G27G13G 4
  -3147051.20249  -2441976.27147  19991419.099    19991427.066    19991419.365
   -121253.34449    -89522.30646  23532711.717    23532721.300    23532711.897
  -1493780.48949  -1157984.51847  21092160.143    21092168.055    21092160.346
  -1712411.33649  -1323303.98047  22529533.389    22529542.251    22529534.209
  -9272777.01049  -7195593.83146  23805821.223    23805830.507    23805821.830
   3776672.40449   2938809.43647  21731722.243    21731731.661    21731722.649
   6147753.54849   4775994.98845  24101444.156    24101455.055    24101445.022
  -6797647.84549  -5265480.94845  23424077.333    23424089.276    23424078.226
 98  5 11 16  8 29.9990000  0  8G 7G15G 2G26G 9G27G13G 4
  -3164362.69449  -2455465.75347  19988124.706    19988132.843    19988125.140
    -97262.25449    -70827.98545  23537276.904    23537286.705    23537277.255
  -1502368.23449  -1164676.27647  21090526.052    21090533.866    21090526.181
  -1709795.57749  -1321265.75247  22530031.084    22530040.081    22530032.012
  -9398517.29849  -7293573.24846  23781893.932    23781902.939    23781894.205
   3839689.40449   2987913.52847  21743714.292    21743723.404    21743714.496
   6220759.79549   4832882.95345  24115337.171    24115347.645    24115337.816
  -6930037.22049  -5368641.39645  23398884.047    23398896.225    23398885.355
 98  5 11 16  8 59.9990000  0  8G 7G15G 2G26G 9G27G13G 4
  -3181241.84049  -2468618.34847  19984912.842    19984920.875    19984913.175
    -72723.28949    -51706.78946  23541946.512    23541956.428    23541946.945
  -1510772.32449  -1171224.92847  21088926.798    21088934.635    21088926.939
  -1706722.71549  -1318871.33547  22530615.706    22530624.859    22530616.779
  -9524118.01549  -7391443.91446  23757993.188    23758001.962    23757993.161
   3903074.41149   3037304.37247  21755775.955    21755785.258    21755776.322
   6293699.89749   4889719.34345  24129217.257    24129227.763    24129217.979
  -7062351.29249  -5471743.16845  23373705.519    23373717.580    23373706.682
 98  5 11 16  9 29.9990000  0  8G 7G15G 2G26G 9G27G13G 4
  -3197703.17949  -2481445.37947  19981780.507    19981788.421    19981780.705
    -47640.35849    -32161.71146  23546719.644    23546729.595    23546720.111
  -1519007.93349  -1177642.29947  21087359.597    21087367.452    21087359.778
  -1703207.96049  -1316132.59847  22531284.577    22531293.747    22531285.664
  -9649571.97549  -7489200.23146  23734120.466    23734128.830    23734120.077
   3966805.42049   3086964.81847  21767903.642    21767912.910    21767904.006
   6366569.82449   4946501.07445  24143084.067    24143094.536    24143084.581
  -7194577.71649  -5574776.63245  23348543.702    23348555.697    23348544.825
 98  5 11 16  9 59.9990000  0  8G 7G15G 2G26G 9G27G13G 4
  -3213743.72649  -2493944.52047  19978728.087    19978736.034    19978728.305
    -22007.12949    -12187.81746  23551597.611    23551607.471    23551598.014
  -1527059.02249  -1183915.88747  21085827.579    21085835.391    21085827.729
  -1699237.20349  -1313038.53147  22532040.551    22532049.410    22532041.297
  -9774868.86749  -7586834.13546  23710276.970    23710285.615    23710276.788
   4030901.92449   3136910.08547  21780100.785    21780110.112    21780101.232
   6439390.62249   5003244.54645  24156941.412    24156951.919    24156941.953
  -7326700.83449  -5677729.61046  23323401.502    23323413.353    23323402.574
 98  5 11 16 10 29.9990000  0  8G 7G15G 2G26G 9G27G13G 4
  -3229374.77349  -2506124.56447  19975753.524    19975761.550    19975753.815
      4163.71549      8205.03145  23556577.936    23556587.584    23556578.282
  -1534926.54849  -1190046.43647  21084330.404    21084338.255    21084330.594
  -1694808.58549  -1309587.69147  22532883.289    22532892.157    22532884.047
  -9900009.84149  -7684346.58446  23686463.584    23686472.068    23686463.250
   4095369.40549   3187144.41447  21792368.913    21792377.917    21792369.066
   6512159.79949   5059947.79245  24170788.836    24170799.461    24170789.632
  -7458719.28149  -5780600.99846  23298279.111    23298290.879    23298280.236
 98  5 11 16 10 59.9990000  0  8G 7G15G 2G26G 9G27G13G 4
  -3244572.42849  -2517966.90247  19972861.455    19972869.528    19972861.803
     30882.14849     29024.60645  23561662.303    23561671.905    23561662.711
  -1542604.06249  -1196028.93047  21082869.337    21082877.281    21082869.632
  -1689887.16649  -1305752.84847  22533819.555    22533828.702    22533820.591
 -10024983.96149  -7781728.99946  23662681.738    23662690.282    23662681.482
   4160222.82249   3237679.46846  21804710.124    21804719.206    21804710.308
   6584877.98849   5116611.31245  24184626.723    24184637.321    24184627.444
  -7590613.37449  -5883375.47946  23273180.483    23273192.133    23273181.475
 98  5 11 16 11 29.9990000  0  8G 7G15G 2G26G 9G27G13G 4
  -3259322.52149  -2529460.48947  19970054.541    19970062.637    19970054.932
     58149.56849     50271.95146  23566851.239    23566860.781    23566851.534
  -1550072.89749  -1201848.80947  21081448.247    21081456.006    21081448.353
  -1684447.20549  -1301513.94547  22534854.669    22534863.924    22534855.831
 -10149802.71549  -7878990.32446  23638929.460    23638938.167    23638929.163
   4225465.83349   3288518.11246  21817125.407    21817134.603    21817125.699
   6657549.00549   5173238.01045  24198455.273    24198466.218    24198456.372
  -7722385.25149  -5986054.72445  23248104.868    23248116.546    23248106.082
 98  5 11 16 11 59.9990000  0  8G 7G15G 2G26G 9G27G13G 4
  -3273627.36249  -2540607.12747  19967332.576    19967340.513    19967332.824
     85956.34549     71939.53946  23572142.748    23572152.335    23572143.026
  -1557340.17249  -1207511.63747  21080065.375    21080073.095    21080065.442
  -1678492.65249  -1296874.06247  22535987.951    22535997.084    22535988.985
 -10274477.49549  -7976139.52146  23615203.898    23615213.225    23615204.363
   4291089.97049   3339653.73346  21829613.535    21829622.566    21829613.620
   6730176.25149   5229830.63745  24212275.896    24212286.659    24212276.779
  -7854049.60749  -6088650.13846  23223050.081    23223061.598    23223051.043
 98  5 11 16 12 29.9990000  0  8G 7G15G 2G26G 9G27G13G 4
  -3287499.39049  -2551416.50947  19964692.885    19964700.776    19964693.090
    114287.20749     94015.49446  23577533.985    23577543.544    23577534.240
  -1564424.95349  -1213032.25847  21078717.025    21078724.927    21078717.264
  -1672053.72449  -1291856.74247  22537213.460    22537222.399    22537214.275
 -10399015.61949  -8073182.16046  23591505.396    23591514.459    23591505.329
   4357060.41649   3391059.19946  21842167.125    21842176.433    21842167.378
   6802734.25149   5286369.30245  24226082.828    24226094.037    24226084.131
  -7985619.83649  -6191172.21446  23198012.651    23198024.415    23198013.920
 98  5 11 16 12 59.9990000  0  8G 7G15G 2G26G 9G27G13G 4
  -3300917.33849  -2561872.06047  19962139.513    19962147.415    19962139.738
    143159.67949    116513.50346  23583028.307    23583037.852    23583028.501
  -1571297.38649  -1218387.41547  21077409.316    21077417.166    21077409.509
  -1665126.62349  -1286459.02047  22538531.529    22538540.577    22538532.471
 -10523403.27949  -8170107.64846  23567835.498    23567844.047    23567835.212
   4423379.87849   3442736.63746  21854787.454    21854796.655    21854787.581
   6875222.68449   5342853.77445  24239877.103    24239888.254    24239878.140
  -8117080.78849  -6293609.12146  23172996.639    23173008.065    23172997.667
 98  5 11 16 13 29.9990000  0  8G 7G15G 2G26G 9G27G13G 4
  -3313900.64149  -2571988.92647  19959668.865    19959676.807    19959669.131
    172569.09049    139429.90446  23588624.844    23588634.345    23588624.964
  -1577954.11749  -1223574.48847  21076142.689    21076150.444    21076142.779
  -1657729.06849  -1280694.71147  22539939.414    22539948.291    22539940.185
 -10647643.65349  -8266918.28246  23544193.174    23544201.972    23544193.041
   4490038.37249   3494678.25646  21867472.252    21867481.492    21867472.362
   6947638.46649   5399281.62345  24253657.076    24253668.455    24253658.443
  -8248436.37049  -6395963.89546  23148000.110    23148011.811    23148001.380
 98  5 11 16 13 59.9980000  0  8G 7G15G 2G26G 9G27G13G 4
  -3326467.59149  -2581781.36247  19957277.350    19957285.424    19957277.747
    202509.74849    162760.28246  23594322.459    23594331.910    23594322.506
  -1584408.31549  -1228603.75047  21074914.360    21074922.285    21074914.619
  -1649882.27649  -1274580.35747  22541432.755    22541441.494    22541433.413
 -10771720.07549  -8363601.17446  23520582.327    23520591.027    23520582.000
   4557033.69149   3546882.34046  21880220.895    21880230.335    21880221.175
   7019962.89449   5455638.29245  24267419.903    24267431.580    24267421.326
  -8379682.04449  -6498233.03046  23123025.060    23123036.474    23123025.956
 98  5 11 16 14 29.9980000  0  8G 7G15G 2G26G 9G27G13G 4
  -3338615.43949  -2591247.22447  19954965.679    19954973.795    19954966.106
    232983.36249    186505.95745  23600121.305    23600130.910    23600121.377
  -1590646.01149  -1233464.31147  21073727.427    21073735.300    21073727.635
  -1641594.67349  -1268122.50947  22543009.724    22543018.541    22543010.455
 -10895626.73649  -8460151.81046  23497002.984    23497012.474    23497003.446
   4624378.44349   3599358.69746  21893036.101    21893045.637    21893036.475
   7092184.85849   5511915.08945  24281163.511    24281174.979    24281164.543
  -8510821.65049  -6600419.53146  23098069.643    23098081.214    23098070.770
 98  5 11 16 14 59.9980000  0  8G 7G15G 2G26G 9G27G13G 4
  -3350353.50849  -2600393.77547  19952731.944    19952740.132    19952732.457
    263982.62849    210661.20345  23606020.403    23606029.880    23606020.211
  -1596678.82149  -1238165.21747  21072579.495    21072587.321    21072579.666
  -1632867.88649  -1261322.44047  22544670.222    22544679.172    22544671.066
 -11019369.01749  -8556574.37246  23473455.518    23473464.887    23473456.033
   4692073.64649   3652108.13246  21905918.298    21905927.672    21905918.478
   7164301.05649   5568109.53344  24294885.742    24294898.264    24294887.696
  -8641852.70449  -6702521.41346  23073135.112    23073146.664    23073136.207
 98  5 11 16 15 29.9980000  0  8G 7G15G 2G26G 9G27G13G 4
  -3361678.19249  -2609218.20647  19950576.867    19950585.101    19950577.448
    295523.93449    235238.80245  23612022.340    23612032.270    23612022.055
  -1602503.13149  -1242703.66247  21071471.033    21071478.964    21071471.319
  -1623672.65849  -1254157.35647  22546419.941    22546428.997    22546420.903
 -11142923.85149  -8652850.82446  23449942.824    23449953.251    23449944.311
   4760137.22049   3705144.61946  21918870.351    21918879.835    21918870.651
   7236338.79048   5624242.80744  24308594.340    24308606.506    24308595.853
  -8772746.03949  -6804515.99346  23048226.371    23048238.289    23048227.778
